User: anonymous   Login
Location: Sternwarte Stuttgart
(48.7670°N, 9.1830°E)
Time: 04:13:54
(UTC+01:00)
Language:

ALOS - Orbit

View from above orbital plane
View from above orbital plane
View from above satellite
View from above satellite

Ground track
Ground track

The orbit data is extracted from the following two-line orbital elements,

1 28931U 06002A   19079.89957968  .00000106  00000-0  29526-4 0  9993
2 28931  97.8203  83.8729 0002334  85.2510 274.8942 14.62588838701258
Epoch (UTC): 20 March 2019 21:35:23
Eccentricity: 0.0002334
inclination: 97.8203°
perigee height: 683 km
apogee height: 686 km
right ascension of ascending node: 83.8729°
argument of perigee: 85.2510°
revolutions per day: 14.62588838
mean anomaly at epoch: 274.8942°
orbit number at epoch: 70125

The dashed part of the orbit path shows where the satellite is in the earth's shadow,  

DLR